Tracking 19709 objects as of 19-Jun-2019
HD Live streaming from Space Station
objects crossing your sky now

BREEZE-M DEB

Track BREEZE-M DEB now!
10-day predictions


NORAD ID: 39174
Int'l Code: 2013-026C
Perigee: 374.6 km
Apogee: 14,789.4 km
Inclination: 50.7 °
Period: 273.4 minutes
Semi major axis: 13953 km
RCS: Unknown
Launch date: June 3, 2013
Source: Commonwealth of Independent States (former USSR) (CIS)
Launch site: TYURATAM MISSILE AND SPACE COMPLEX (TTMTR)

Note: This is SATELLITE DEBRIS
aabbcc
Your satellite tracking list
Your tracking list is empty




NASA's NSSDC Master Catalog

Two Line Element Set (TLE):
1 39174U 13026C   19169.66711448  .00000216  00000-0  84801-4 0  9993
2 39174  50.7063 173.0612 5165483  51.4098 344.6040  5.26744562116017
Source of the keplerian elements: AFSPC